Tomorrow-S6

operational
NORAD ID: 63225 Int'l Des: 2025-052 Owner: TOMIO Country: US
LEOCIRCULARRETROGRADESSO

About Tomorrow-S6

Description loading...

Live Position

Loading 3D Globe...

Upcoming Passes

Altitude History

Altitude vs Time

uPlot chart will show altitude changes over time

Two-Line Element Set

1 63225U 25052R 26061.65747644 .00005728 00000-0 25816-3 0 9997
2 63225 97.4143 316.1947 0006337 134.3120 225.8637 15.21412782 53646
Epoch: Mar 2, 2026 • Age: 32 hours

Current Status

Altitude 505.7 km
Velocity 7.61 km/s
Sub-Earth Point -14.77°S, 152.46°W
Launch Date Mar 15, 2025
Age 0.9 years
Type other

Technical Details

Classification Payload
Mass 12.00 kg
Dry Mass 12.00 kg
Total Mass 12.00 kg
Length 0.30 m
Diameter 0.20 m
Span 1.20 m
Shape Box+2 pan
Manufacturer BLCAN
Bus Type Cubesat 6U
Phase Status In Orbit
Owner/State TOMIO/US

Large Constellations

Loading constellations...